Regional Weather Roundup
Issued by NWS

Home | Current Version | Previous Version | Text Only | Print | Product List | Glossary On
Versions: 1 2 3 4 5 6 7 8 9 10 11 12 13 14 15 16 17 18 19 20 21 22 23 24 25 26 27 28 29 30 31 32 33 34 35 36 37 38 39 40 41 42 43 44 45 46 47 48 49 50
126
ASUS45 KBOI 291110
RWRID

IDAHO REGIONAL WEATHER ROUNDUP
NATIONAL WEATHER SERVICE BOISE ID
500 AM MDT SUN MAY 29 2016

NOTE: "FAIR" INDICATES FEW OR NO CLOUDS BELOW 12000 FEET
WITH NO SIGNIFICANT WEATHER AND/OR OBSTRUCTIONS TO VISIBILITY

IDZ012-014-291200-
SOUTHWEST IDAHO


CITY           SKY/WX    TMP DP  RH WIND       PRES   REMARKS
BOISE          CLEAR     51  35  54 SE9       30.02R
CALDWELL       CLEAR     45  38  76 SE5       30.02S
MOUNTAIN HOME  CLEAR     47  37  68 E8        30.03S
$$

IDZ016-017-291200-
SOUTHCENTRAL IDAHO


CITY           SKY/WX    TMP DP  RH WIND       PRES   REMARKS
BURLEY         CLEAR     43  40  89 CALM      30.07S
JEROME         CLEAR     45  36  70 E8        30.07S
TWIN FALLS     CLEAR     41  35  79 S7        30.07S
$$

IDZ019>023-291200-
SOUTHEAST IDAHO


CITY           SKY/WX    TMP DP  RH WIND       PRES   REMARKS
IDAHO FALLS    CLEAR     35  31  85 N3        30.12S
POCATELLO      CLEAR     37  34  89 CALM      30.10S
REXBURG        CLEAR     37  32  82 N5        30.13S WCI  33
$$

IDZ006-010-011-018-031-032-291200-
CENTRAL IDAHO MOUNTAINS


CITY           SKY/WX    TMP DP  RH WIND       PRES   REMARKS
MCCALL         CLEAR     35  31  85 CALM      30.08F
HAILEY         CLEAR     39  32  75 NW10      30.14S WCI  32
STANLEY          N/A     25  21  85 CALM      30.18S
SALMON         CLEAR     37  30  75 S3        30.10R
CHALLIS        CLEAR     40  29  64 SW3       30.11S
$$

IDZ002-004-006-007-026-291200-
NORTHERN IDAHO


CITY           SKY/WX    TMP DP  RH WIND       PRES   REMARKS
LEWISTON       CLEAR     52  42  69 CALM      29.99F
LOWELL           N/A     47  42  83 NW5       30.08S
COEUR D`ALENE  MOCLDY    46  41  81 E6        29.98F
MULLAN PASS    CLOUDY    40  32  73 S6        30.06S
$$




USA.gov is the U.S. government's official web portal to all federal, state and local government web resources and services.